Voltar ao catálogo

METEOSAT 7

AtivoMeteoGEO
NORAD 24932·PAYLOAD·🇪🇺 EU

Lançado Sep 2, 1997 de Guiana Space Centre

Loading…

TLE

AtualizadoSource: Space-Track

Época: Sep 14, 2026, 14:19 UTC

1 24932U 97049B   26257.59706378 -.00000235  00000-0  00000-0 0  9997
2 24932  13.7873  14.3213 0007054  62.8372 293.3815  0.98311997105621

Acompanhe METEOSAT 7 em tempo real com AllMySat

Download on the App Store